FW7813 Weather Reports


time (UTC)temp
F
wind
direction
speed
knots
gust
knots
rain 1hr
in
rain 24hr
in
rain mn
in
humidity
%
barometer
mb
20260906213053 96 188 3.5 9.6 0.00 0.00 0.00 30 1015.3
20260906212528 96 57 3.5 11.3 0.00 0.00 0.00 30 1015.5
20260906212031 96 107 4.3 12.2 0.00 0.00 0.00 31 1015.7
20260906211552 95 138 4.3 12.2 0.00 0.00 0.00 32 1015.5
20260906211028 94 119 1.7 11.3 0.00 0.00 0.00 32 1015.5
20260906210528 95 69 4.3 11.3 0.00 0.00 0.00 31 1015.6
20260906210045 95 128 2.6 10.4 0.00 0.00 0.00 32 1015.8
20260906205532 95 110 3.5 10.4 0.00 0.00 0.00 31 1015.9
20260906205032 96 65 2.6 8.7 0.00 0.00 0.00 31 1015.9
20260906204559 96 179 1.7 11.3 0.00 0.00 0.00 33 1015.9
20260906204031 95 157 3.5 11.3 0.00 0.00 0.00 33 1015.9
20260906203529 95 97 4.3 11.3 0.00 0.00 0.00 33 1015.9
20260906203049 95 60 3.5 11.3 0.00 0.00 0.00 33 1015.9
20260906202527 95 88 3.5 9.6 0.00 0.00 0.00 33 1015.9
20260906202030 95 96 3.5 10.4 0.00 0.00 0.00 33 1016.0
20260906201609 95 138 3.5 10.4 0.00 0.00 0.00 33 1016.0
20260906201030 95 150 2.6 9.6 0.00 0.00 0.00 33 1016.1
20260906200529 95 190 3.5 13.0 0.00 0.00 0.00 34 1016.1
20260906200050 95 67 4.3 13.0 0.00 0.00 0.00 33 1016.1
20260906195530 95 108 3.5 11.3 0.00 0.00 0.00 34 1016.3
20260906195031 96 157 5.2 11.3 0.00 0.00 0.00 33 1016.4
20260906194557 97 347 1.7 9.6 0.00 0.00 0.00 33 1016.4
20260906194033 97 0 3.5 12.2 0.00 0.00 0.00 34 1016.6
20260906193529 96 184 0.9 12.2 0.00 0.00 0.00 36 1016.6
20260906193054 96 111 4.3 10.4 0.00 0.00 0.00 34 1016.6
20260906192528 96 77 3.5 10.4 0.00 0.00 0.00 34 1016.6
20260906192028 95 156 2.6 9.6 0.00 0.00 0.00 35 1016.6
20260906191553 94 107 3.5 9.6 0.00 0.00 0.00 35 1016.6
20260906191031 95 113 3.5 7.8 0.00 0.00 0.00 35 1016.8
20260906190531 95 115 2.6 7.8 0.00 0.00 0.00 35 1017.0
20260906190105 94 80 2.6 7.8 0.00 0.00 0.00 36 1017.1
20260906185531 95 129 2.6 8.7 0.00 0.00 0.00 35 1017.1
20260906185031 94 201 3.5 9.6 0.00 0.00 0.00 37 1017.1
20260906184547 93 121 3.5 12.2 0.00 0.00 0.00 37 1017.1
20260906184031 92 192 3.5 12.2 0.00 0.00 0.00 38 1017.3
20260906183529 91 35 2.6 9.6 0.00 0.00 0.00 38 1017.5
20260906183103 91 121 4.3 9.6 0.00 0.00 0.00 38 1017.6
20260906182529 91 49 0.9 11.3 0.00 0.00 0.00 37 1017.6
20260906182032 91 0 3.5 11.3 0.00 0.00 0.00 39 1017.7
20260906181558 91 105 4.3 11.3 0.00 0.00 0.00 41 1017.8
20260906181028 91 109 2.6 8.7 0.00 0.00 0.00 40 1017.9
20260906180529 92 110 4.3 10.4 0.00 0.00 0.00 38 1017.9
20260906180109 93 60 3.5 10.4 0.00 0.00 0.00 38 1017.9
20260906175530 93 111 3.5 9.6 0.00 0.00 0.00 38 1018.0
20260906175029 93 205 3.5 9.6 0.00 0.00 0.00 37 1018.2
20260906174545 93 69 2.6 10.4 0.00 0.00 0.00 39 1018.1
20260906174029 92 155 4.3 10.4 0.00 0.00 0.00 39 1018.1
20260906173529 93 88 4.3 11.3 0.00 0.00 0.00 39 1018.3
20260906173053 93 112 2.6 11.3 0.00 0.00 0.00 38 1018.4
20260906172529 93 197 3.5 13.0 0.00 0.00 0.00 39 1018.3
20260906172028 92 0 4.3 13.0 0.00 0.00 0.00 39 1018.5
20260906171558 93 115 4.3 12.2 0.00 0.00 0.00 38 1018.4
20260906171030 93 140 2.6 9.6 0.00 0.00 0.00 39 1018.5
20260906170528 92 182 2.6 13.0 0.00 0.00 0.00 41 1018.5
20260906170113 92 134 2.6 13.0 0.00 0.00 0.00 42 1018.5
20260906165532 92 104 2.6 10.4 0.00 0.00 0.00 40 1018.4
20260906165032 92 67 3.5 10.4 0.00 0.00 0.00 40 1018.5
20260906164545 92 111 2.6 10.4 0.00 0.00 0.00 40 1018.5
20260906164029 92 116 2.6 9.6 0.00 0.00 0.00 41 1018.5
20260906163528 92 143 2.6 9.6 0.00 0.00 0.00 42 1018.5
20260906163053 91 117 1.7 8.7 0.00 0.00 0.00 44 1018.5
20260906162528 90 105 1.7 7.0 0.00 0.00 0.00 46 1018.6
20260906162027 89 236 1.7 7.0 0.00 0.00 0.00 48 1018.5
20260906161551 89 113 2.6 7.0 0.00 0.00 0.00 49 1018.6
20260906161028 89 105 1.7 7.0 0.00 0.00 0.00 48 1018.6
20260906160531 89 122 2.6 7.8 0.00 0.00 0.00 49 1018.6
20260906160048 90 121 2.6 7.8 0.00 0.00 0.00 50 1018.5
20260906155530 89 113 0.9 9.6 0.00 0.00 0.00 49 1018.5
20260906155028 90 224 1.7 9.6 0.00 0.00 0.00 48 1018.5
20260906154546 90 103 0.9 7.0 0.00 0.00 0.00 48 1018.4
20260906154031 89 138 0.9 8.7 0.00 0.00 0.00 48 1018.3
20260906153529 89 229 1.7 8.7 0.00 0.00 0.00 49 1018.3
20260906153053 89 271 1.7 6.1 0.00 0.00 0.00 48 1018.4
20260906152530 89 116 0.9 6.1 0.00 0.00 0.00 50 1018.3
20260906152027 88 150 1.7 6.1 0.00 0.00 0.00 51 1018.5
20260906151559 88 342 0.9 6.1 0.00 0.00 0.00 52 1018.4
20260906151029 87 198 1.7 7.0 0.00 0.00 0.00 51 1018.3
20260906150531 87 136 1.7 7.0 0.00 0.00 0.00 52 1018.3
20260906150046 87 101 0.9 7.0 0.00 0.00 0.00 51 1018.4
20260906145529 87 265 0.9 7.0 0.00 0.00 0.00 52 1018.5
20260906145029 86 5 0.9 7.0 0.00 0.00 0.00 52 1018.5
20260906144544 86 257 0.9 7.0 0.00 0.00 0.00 53 1018.4
20260906144027 85 198 1.7 7.0 0.00 0.00 0.00 53 1018.5
20260906143529 85 241 1.7 7.0 0.00 0.00 0.00 53 1018.5
20260906143106 84 0 0.9 7.0 0.00 0.00 0.00 53 1018.5
20260906142528 84 36 0.9 4.3 0.00 0.00 0.00 54 1018.5
20260906142029 83 232 0.9 4.3 0.00 0.00 0.00 55 1018.3
20260906141549 82 0 1.7 4.3 0.00 0.00 0.00 56 1018.3
20260906141031 83 240 0.0 3.5 0.00 0.00 0.00 55 1018.3
20260906140528 83 69 0.0 2.6 0.00 0.00 0.00 56 1018.2
20260906140049 82 0 0.0 5.2 0.00 0.00 0.00 55 1018.1
20260906135528 82 112 0.9 5.2 0.00 0.00 0.00 57 1018.0
20260906135030 81 0 0.0 6.1 0.00 0.00 0.00 57 1018.2
20260906134559 80 175 0.9 6.1 0.00 0.00 0.00 58 1018.1
20260906134028 80 89 0.0 3.5 0.00 0.00 0.00 58 1018.0
20260906133529 79 155 0.9 3.5 0.00 0.00 0.00 59 1017.9
20260906133046 78 80 0.0 2.6 0.00 0.00 0.00 60 1017.9
20260906132528 77 67 0.0 1.7 0.00 0.00 0.00 62 1017.6
20260906132028 76 0 0.0 1.7 0.00 0.00 0.00 64 1017.7
20260906131551 75 134 0.0 2.6 0.00 0.00 0.00 66 1017.7
20260906131027 74 0 0.0 2.6 0.00 0.00 0.00 66 1017.6
20260906130528 73 0 0.9 2.6 0.00 0.00 0.00 67 1017.7
20260906130053 73 0 0.0 0.0 0.00 0.00 0.00 69 1017.7
20260906125531 72 0 0.0 0.0 0.00 0.00 0.00 69 1017.8
20260906125031 72 0 0.0 0.0 0.00 0.00 0.00 69 1017.8
20260906124549 72 0 0.0 0.0 0.00 0.00 0.00 68 1017.8
20260906124030 72 0 0.0 0.0 0.00 0.00 0.00 69 1017.6
20260906123527 72 0 0.0 0.0 0.00 0.00 0.00 69 1017.6
20260906123135 72 0 0.0 1.7 0.00 0.00 0.00 69 1017.5
20260906122528 72 0 0.0 1.7 0.00 0.00 0.00 68 1017.4
20260906122029 71 90 0.0 0.9 0.00 0.00 0.00 69 1017.2
20260906121554 71 0 0.0 1.7 0.00 0.00 0.00 69 1017.3
20260906121028 71 0 0.0 1.7 0.00 0.00 0.00 69 1017.3
20260906120529 71 90 0.0 1.7 0.00 0.00 0.00 69 1017.2
20260906120054 71 0 0.0 1.7 0.00 0.00 0.00 69 1017.3
20260906115528 71 0 0.0 0.9 0.00 0.00 0.00 69 1017.3
20260906115027 72 0 0.0 0.0 0.00 0.00 0.00 68 1017.3
20260906114547 72 0 0.0 0.0 0.00 0.00 0.00 69 1017.3
20260906114026 71 0 0.0 0.0 0.00 0.00 0.00 69 1017.1
20260906113527 71 0 0.0 0.0 0.00 0.00 0.00 69 1017.1
20260906113046 71 0 0.0 0.0 0.00 0.00 0.00 69 1017.0
20260906112528 71 0 0.0 0.0 0.00 0.00 0.00 69 1016.9
20260906112029 71 0 0.0 0.0 0.00 0.00 0.00 68 1016.9
20260906111555 71 0 0.0 0.0 0.00 0.00 0.00 68 1017.1
20260906111029 71 0 0.0 0.0 0.00 0.00 0.00 68 1017.0
20260906110532 72 0 0.0 0.0 0.00 0.00 0.00 68 1016.9
20260906110052 72 0 0.0 0.0 0.00 0.00 0.00 68 1016.9
20260906105530 72 0 0.0 0.0 0.00 0.00 0.00 68 1017.0
20260906105032 72 0 0.0 0.0 0.00 0.00 0.00 68 1016.9
20260906104549 72 0 0.0 0.0 0.00 0.00 0.00 67 1016.9
20260906104033 72 0 0.0 0.0 0.00 0.00 0.00 67 1017.0
20260906103530 72 0 0.0 1.7 0.00 0.00 0.00 67 1016.8
20260906103056 72 0 0.0 1.7 0.00 0.00 0.00 67 1017.0
20260906102532 72 0 0.0 1.7 0.00 0.00 0.00 67 1017.1
20260906102031 72 0 0.0 0.0 0.00 0.00 0.00 67 1017.0
20260906101553 72 0 0.0 0.0 0.00 0.00 0.00 67 1016.7
20260906101028 72 0 0.0 0.0 0.00 0.00 0.00 67 1016.7
20260906100534 72 0 0.0 0.0 0.00 0.00 0.00 66 1016.7
20260906100053 72 0 0.0 0.0 0.00 0.00 0.00 67 1016.8
20260906095532 73 0 0.0 0.0 0.00 0.00 0.00 66 1016.7
20260906095034 73 0 0.0 0.0 0.00 0.00 0.00 66 1016.7
20260906094602 73 0 0.0 0.0 0.00 0.00 0.00 65 1016.7
20260906094032 73 0 0.0 0.0 0.00 0.00 0.00 65 1016.8
20260906093532 73 0 0.0 0.0 0.00 0.00 0.00 64 1016.8
20260906093056 73 0 0.0 0.0 0.00 0.00 0.00 64 1016.7
20260906092530 74 0 0.0 0.0 0.00 0.00 0.00 63 1016.8
20260906092029 74 0 0.0 0.0 0.00 0.00 0.00 63 1016.8
20260906091603 74 0 0.0 0.0 0.00 0.00 0.00 63 1016.8
20260906091032 74 0 0.0 1.7 0.00 0.00 0.00 63 1016.8
20260906090533 75 0 0.0 1.7 0.00 0.00 0.00 63 1016.8
20260906090048 75 0 0.0 0.0 0.00 0.00 0.00 63 1016.8
20260906085532 75 0 0.0 0.0 0.00 0.00 0.00 62 1016.8
20260906085031 75 0 0.0 0.0 0.00 0.00 0.00 62 1016.7
20260906084557 75 0 0.0 0.0 0.00 0.00 0.00 62 1016.8
20260906084031 75 0 0.0 0.0 0.00 0.00 0.00 62 1016.8
20260906083532 75 0 0.0 0.0 0.00 0.00 0.00 61 1016.8
20260906083045 75 0 0.0 0.0 0.00 0.00 0.00 61 1016.7
20260906082531 76 0 0.0 0.9 0.00 0.00 0.00 61 1016.7
20260906082046 76 0 0.0 1.7 0.00 0.00 0.00 60 1016.7
20260906081553 76 0 0.0 1.7 0.00 0.00 0.00 60 1016.8
20260906081031 76 164 0.0 2.6 0.00 0.00 0.00 60 1016.7
20260906080532 76 0 0.0 2.6 0.00 0.00 0.00 60 1016.7
20260906080053 76 0 0.0 2.6 0.00 0.00 0.00 60 1016.8
20260906075532 76 0 0.0 2.6 0.00 0.00 0.00 60 1016.6
20260906075031 76 0 0.0 2.6 0.00 0.00 0.00 60 1016.9
20260906074550 76 0 0.0 2.6 0.00 0.00 0.00 60 1016.7
20260906074031 76 0 0.0 3.5 0.00 0.00 0.00 60 1016.6
20260906073532 76 102 0.9 3.5 0.00 0.00 0.00 59 1016.7
20260906073045 76 0 0.0 2.6 0.00 0.00 0.00 59 1016.8
20260906072529 76 101 0.0 2.6 0.00 0.00 0.00 59 1016.8
20260906072029 76 0 0.0 2.6 0.00 0.00 0.00 59 1016.9
20260906071553 76 0 0.0 2.6 0.00 0.00 0.00 59 1017.1
20260906071029 76 0 0.0 2.6 0.00 0.00 0.00 59 1017.0
20260906070529 76 0 0.0 2.6 0.00 0.00 0.00 59 1017.0
20260906070051 77 0 0.9 2.6 0.00 0.00 0.00 58 1017.0
20260906065532 77 87 0.0 2.6 0.00 0.00 0.00 58 1017.0
20260906065030 77 0 0.0 1.7 0.00 0.00 0.00 58 1017.0
20260906064556 77 0 0.0 1.7 0.00 0.00 0.00 58 1017.0
20260906064033 77 0 0.0 0.9 0.00 0.00 0.00 57 1016.9
20260906063532 77 0 0.0 1.7 0.00 0.00 0.00 57 1017.1
20260906063059 77 0 0.0 2.6 0.00 0.00 0.00 57 1017.0
20260906062528 78 0 0.0 2.6 0.00 0.00 0.00 56 1017.0
20260906062031 78 94 0.0 3.5 0.00 0.00 0.00 56 1016.8
20260906061555 78 110 0.0 3.5 0.00 0.00 0.00 55 1017.0
20260906061031 79 0 0.0 3.5 0.00 0.00 0.00 55 1017.0
20260906060528 79 101 0.9 3.5 0.00 0.00 0.00 54 1017.1
20260906060052 80 0 0.0 2.6 0.00 0.00 0.00 54 1017.0
20260906055530 80 129 0.0 2.6 0.00 0.00 0.00 53 1017.1
20260906055028 80 0 0.0 2.6 0.00 0.00 0.00 52 1017.1
20260906054546 81 128 0.0 2.6 0.00 0.00 0.00 52 1017.0
20260906054032 81 0 0.0 1.7 0.00 0.00 0.00 51 1017.1
20260906053529 81 0 0.0 4.3 0.00 0.00 0.00 51 1017.1
20260906053104 82 0 0.9 7.0 0.00 0.00 0.00 50 1017.1
20260906052532 82 136 1.7 7.0 0.00 0.00 0.00 50 1016.8
20260906052032 82 0 1.7 5.2 0.00 0.00 0.00 50 1016.8
20260906051554 82 86 0.9 3.5 0.00 0.00 0.00 49 1016.9
20260906051030 83 107 0.9 3.5 0.00 0.00 0.00 49 1016.9
20260906050619 83 145 0.0 6.1 0.00 0.00 0.00 49 1016.9
20260906050054 83 140 0.9 6.1 0.00 0.00 0.00 49 1016.9
20260906045532 83 123 1.7 6.1 0.00 0.00 0.00 48 1016.9
20260906045032 83 126 0.9 6.1 0.00 0.00 0.00 48 1016.9
20260906044555 83 92 1.7 5.2 0.00 0.00 0.00 48 1016.8
20260906044032 84 55 0.9 5.2 0.00 0.00 0.00 48 1016.8
20260906043531 84 0 0.9 8.7 0.00 0.00 0.00 47 1016.6
20260906043100 84 115 0.9 8.7 0.00 0.00 0.00 47 1016.7
20260906042531 84 113 1.7 8.7 0.00 0.00 0.00 47 1016.8
20260906042028 84 95 1.7 7.0 0.00 0.00 0.00 47 1016.8
20260906041557 84 145 0.9 7.0 0.00 0.00 0.00 47 1016.7
20260906041028 84 109 0.9 6.1 0.00 0.00 0.00 47 1016.7
20260906040530 83 0 0.9 6.1 0.00 0.00 0.00 48 1016.7
20260906040050 83 0 0.0 2.6 0.00 0.00 0.00 48 1016.8
20260906035529 83 0 0.0 2.6 0.00 0.00 0.00 48 1016.7
20260906035029 83 100 0.0 2.6 0.00 0.00 0.00 48 1016.8
20260906034555 84 105 0.0 1.7 0.00 0.00 0.00 47 1016.9
20260906034031 84 0 0.0 1.7 0.00 0.00 0.00 47 1016.9
20260906033531 84 0 0.0 2.6 0.00 0.00 0.00 47 1016.9
20260906033106 84 146 0.0 2.6 0.00 0.00 0.00 47 1016.9
20260906032532 84 0 0.0 2.6 0.00 0.00 0.00 47 1016.8
20260906032032 84 0 0.0 2.6 0.00 0.00 0.00 46 1016.5
20260906031550 85 0 0.0 0.0 0.00 0.00 0.00 46 1016.4
20260906031030 85 0 0.0 3.5 0.00 0.00 0.00 46 1016.2
20260906030532 85 0 0.0 3.5 0.00 0.00 0.00 46 1016.1
20260906030050 85 0 0.0 2.6 0.00 0.00 0.00 46 1015.9
20260906025532 86 84 0.0 2.6 0.00 0.00 0.00 45 1016.0
20260906025032 86 107 0.0 3.5 0.00 0.00 0.00 44 1015.9
20260906024549 86 0 0.0 6.1 0.00 0.00 0.00 43 1015.8
20260906024029 87 191 0.9 6.1 0.00 0.00 0.00 43 1015.8
20260906023537 87 87 0.9 6.1 0.00 0.00 0.00 42 1015.6
20260906023055 87 156 0.0 6.1 0.00 0.00 0.00 42 1015.6
20260906022528 87 107 0.9 6.1 0.00 0.00 0.00 42 1015.6
20260906022030 87 113 0.9 5.2 0.00 0.00 0.00 42 1015.5
20260906021552 87 116 0.9 3.5 0.00 0.00 0.00 42 1015.6
20260906021030 87 0 0.9 3.5 0.00 0.00 0.00 42 1015.5
20260906020530 87 111 0.9 3.5 0.00 0.00 0.00 42 1015.4
20260906020104 88 105 0.0 7.0 0.00 0.00 0.00 42 1015.2
20260906015528 88 108 0.9 7.0 0.00 0.00 0.00 42 1015.2
20260906015030 88 127 0.0 5.2 0.00 0.00 0.00 42 1015.0
20260906014556 88 88 1.7 4.3 0.00 0.00 0.00 42 1015.1
20260906014037 88 86 0.9 3.5 0.00 0.00 0.00 41 1014.7
20260906013528 88 0 0.0 5.2 0.00 0.00 0.00 41 1014.6
20260906013106 89 90 0.0 6.1 0.00 0.00 0.00 41 1014.5
20260906012529 89 104 0.9 6.1 0.00 0.00 0.00 41 1014.5
20260906012032 89 80 0.9 7.0 0.00 0.00 0.00 41 1014.6
20260906011602 89 200 0.9 7.0 0.00 0.00 0.00 41 1014.5
20260906011033 89 0 0.9 7.0 0.00 0.00 0.00 41 1014.4
20260906010532 90 116 0.9 5.2 0.00 0.00 0.00 41 1014.4
20260906010057 90 92 0.9 5.2 0.00 0.00 0.00 40 1014.3
20260906005528 90 101 0.0 5.2 0.00 0.00 0.00 39 1014.4
20260906005031 91 94 0.0 3.5 0.00 0.00 0.00 39 1014.4
20260906004556 91 115 0.9 3.5 0.00 0.00 0.00 39 1014.5
20260906004033 91 0 0.9 7.0 0.00 0.00 0.00 38 1014.4
20260906003528 91 114 1.7 7.0 0.00 0.00 0.00 38 1014.4
20260906003057 91 156 1.7 7.0 0.00 0.00 0.00 38 1014.4
20260906002531 92 0 1.7 7.0 0.00 0.00 0.00 38 1014.4
20260906002035 92 111 1.7 6.1 0.00 0.00 0.00 38 1014.1
20260906001553 92 105 0.9 6.1 0.00 0.00 0.00 37 1014.1
20260906001029 92 108 0.9 6.1 0.00 0.00 0.00 38 1014.0
20260906000528 92 99 0.9 7.8 0.00 0.00 0.00 38 1014.1
20260906000058 92 126 3.5 7.8 0.00 0.00 0.00 37 1014.1
20260905235529 93 112 2.6 12.2 0.00 0.00 0.00 37 1013.9
20260905235030 93 184 3.5 12.2 0.00 0.00 0.00 37 1013.8
20260905234548 94 86 2.6 12.2 0.00 0.00 0.00 36 1013.8
20260905234031 94 112 1.7 9.6 0.00 0.00 0.00 36 1013.6
20260905233532 95 109 3.5 9.6 0.00 0.00 0.00 35 1013.5
20260905233044 95 100 3.5 7.8 0.00 0.00 0.00 34 1013.5
20260905232529 95 96 3.5 11.3 0.00 0.00 0.00 33 1013.3
20260905232030 95 110 4.3 11.3 0.00 0.00 0.00 33 1013.3
20260905231555 96 122 1.7 8.7 0.00 0.00 0.00 33 1013.4
20260905231028 96 108 2.6 7.0 0.00 0.00 0.00 33 1013.5
20260905230530 96 163 2.6 9.6 0.00 0.00 0.00 33 1013.4
20260905230054 96 178 3.5 9.6 0.00 0.00 0.00 32 1013.4
20260905225532 96 111 0.9 7.8 0.00 0.00 0.00 32 1013.2
20260905225029 97 173 1.7 7.8 0.00 0.00 0.00 32 1013.3
20260905224556 97 140 1.7 7.8 0.00 0.00 0.00 31 1013.3
20260905224028 98 120 1.7 8.7 0.00 0.00 0.00 31 1013.6
20260905223530 98 156 3.5 8.7 0.00 0.00 0.00 31 1013.4
20260905223055 98 53 2.6 8.7 0.00 0.00 0.00 31 1013.4
20260905222530 97 126 3.5 8.7 0.00 0.00 0.00 30 1013.5
20260905222031 97 112 2.6 7.8 0.00 0.00 0.00 31 1013.4
20260905221553 97 163 2.6 10.4 0.00 0.00 0.00 31 1013.4
20260905221028 97 169 2.6 10.4 0.00 0.00 0.00 32 1013.5
20260905220531 97 108 4.3 10.4 0.00 0.00 0.00 32 1013.6
20260905220051 96 59 1.7 7.8 0.00 0.00 0.00 33 1013.6
20260905215531 96 119 1.7 11.3 0.00 0.00 0.00 33 1013.7
20260905215032 96 111 3.5 11.3 0.00 0.00 0.00 34 1013.8
20260905214547 96 96 1.7 9.6 0.00 0.00 0.00 33 1013.9
20260905214029 97 150 4.3 9.6 0.00 0.00 0.00 32 1013.9
20260905213528 98 178 3.5 11.3 0.00 0.00 0.00 31 1013.9